Omaha, NE

12:25 AM CDT on September 29, 2016 (GMT -0500)
Eppley Airfield

Weather History for KOMA - June, 2013

Change the Weather History Date:

Saturday, June 15, 2013

  Actual Average Record
Temperature  
Mean Temperature 75 °F 72 °F  
Max Temperature 83 °F 83 °F 104 °F (1946)
Min Temperature 67 °F 61 °F 45 °F (1969)
Degree Days  
Heating Degree Days 0 0  
Month to date heating degree days 16 15  
Since 1 June heating degree days 16 15  
Since 1 July heating degree days 6150 6165  
Cooling Degree Days 10 8  
Month to date cooling degree days 52 87  
Year to date cooling degree days 148 169  
Since 1 June cooling degree days 52 87  
Growing Degree Days 24 (Base 50)    
Moisture  
Dew Point 65 °F    
Average Humidity 69    
Maximum Humidity 87    
Minimum Humidity 51    
Precipitation  
Precipitation T in 0.14 in 1.86 in (1937)
Month to date precipitation 2.88 2.25  
Year to date precipitation 17.22 13.53  
Snow  
Snow 0.00 in 0.00 in - ()
Month to date snowfall 0.0 0.0  
Since 1 July snowfall 35.7 26.4  
Snow Depth 0.00 in    
Sea Level Pressure  
Sea Level Pressure 29.87 in    
Wind  
Wind Speed 9 mph (SSE)    
Max Wind Speed 25 mph    
Max Gust Speed 31 mph    
Visibility 10 miles    
Events Rain    
T = Trace of Precipitation, MM = Missing Value Source: NWS Daily Summary

Daily Weather History Graph

Daily Weather History Graph

Search for Another Location

Airport or City:

Trip Planner

Search our weather history database for the weather conditions in past years. The results will help you decide how hot, cold, wet, or windy it might be!

Date:

Astronomy

Jun. 15, 2013 Rise Set
Actual Time 5:49 AM CDT 8:58 PM CDT
Civil Twilight 5:15 AM CDT 9:32 PM CDT
Nautical Twilight 4:32 AM CDT 10:15 PM CDT
Astronomical Twilight 3:41 AM CDT 11:07 PM CDT
Moon 12:29 PM CDT (6/15) 12:31 AM CDT (6/15)
Length of Visible Light 16h 16m
Length of Day
15h 08m
Waxing Crescent, 40% of the Moon is Illuminated
Jun 15
Waxing Crescent
Jun 16
First Quarter
Jun 23
Full
Jun 29
Last Quarter
Jul 8
New

Hourly Weather History & Observations

Time (CDT) Temp. Heat Index Dew Point Humidity Pressure Visibility Wind Dir Wind Speed Gust Speed Precip Events Conditions
12:52 AM 68.0 °F - 64.0 °F 87% 29.83 in 10.0 mi SE 17.3 mph - N/A   Overcast
1:52 AM 68.0 °F - 63.0 °F 84% 29.85 in 10.0 mi ESE 9.2 mph - N/A   Mostly Cloudy
2:52 AM 68.0 °F - 63.0 °F 84% 29.86 in 10.0 mi East 9.2 mph - N/A   Mostly Cloudy
3:52 AM 66.9 °F - 63.0 °F 87% 29.85 in 10.0 mi SE 9.2 mph - N/A   Mostly Cloudy
4:52 AM 68.0 °F - 64.0 °F 87% 29.83 in 10.0 mi SE 13.8 mph - N/A   Mostly Cloudy
5:52 AM 68.0 °F - 64.0 °F 87% 29.82 in 10.0 mi SSE 11.5 mph - N/A   Mostly Cloudy
6:52 AM 68.0 °F - 64.9 °F 90% 29.85 in 10.0 mi SE 4.6 mph - N/A   Mostly Cloudy
7:52 AM 71.1 °F - 66.0 °F 84% 29.85 in 10.0 mi South 11.5 mph - N/A   Mostly Cloudy
8:52 AM 73.9 °F - 66.0 °F 76% 29.84 in 10.0 mi Variable 3.5 mph - N/A   Mostly Cloudy
9:52 AM 78.1 °F - 61.0 °F 56% 29.84 in 10.0 mi West 17.3 mph 25.3 mph 0.00 in Rain Light Rain
10:52 AM 75.9 °F - 68.0 °F 76% 29.90 in 10.0 mi NNE 17.3 mph 20.7 mph 0.00 in   Mostly Cloudy
11:52 AM 75.9 °F - 66.9 °F 74% 29.89 in 10.0 mi North 8.1 mph - N/A   Overcast
12:52 PM 78.1 °F - 68.0 °F 71% 29.92 in 10.0 mi Calm Calm - N/A   Overcast
1:52 PM 78.1 °F - 69.1 °F 74% 29.92 in 10.0 mi SSW 4.6 mph - N/A   Overcast
2:52 PM 79.0 °F - 68.0 °F 69% 29.93 in 10.0 mi SSW 8.1 mph - N/A   Mostly Cloudy
3:52 PM 81.0 °F 82.5 °F 64.0 °F 56% 29.88 in 10.0 mi South 8.1 mph - N/A   Scattered Clouds
4:52 PM 82.0 °F 83.0 °F 62.1 °F 51% 29.85 in 10.0 mi SSW 9.2 mph - N/A   Scattered Clouds
5:52 PM 82.0 °F 83.0 °F 62.1 °F 51% 29.85 in 10.0 mi SSW 6.9 mph - N/A   Scattered Clouds
6:52 PM 81.0 °F 82.5 °F 64.0 °F 56% 29.86 in 10.0 mi SSW 9.2 mph - N/A   Scattered Clouds
7:52 PM 78.1 °F - 64.9 °F 64% 29.87 in 10.0 mi South 13.8 mph - N/A   Scattered Clouds
8:52 PM 75.9 °F - 64.9 °F 69% 29.89 in 10.0 mi South 9.2 mph - N/A   Scattered Clouds
9:52 PM 73.0 °F - 64.9 °F 76% 29.91 in 10.0 mi SSE 10.4 mph - N/A   Scattered Clouds
10:52 PM 71.1 °F - 64.9 °F 81% 29.93 in 10.0 mi South 4.6 mph - N/A   Scattered Clouds
11:52 PM 70.0 °F - 64.9 °F 84% 29.93 in 10.0 mi South 5.8 mph - N/A   Partly Cloudy